Weather in Khrushchevka

Russia / Lipetsk Oblast     52°32′09″N   39°30′12″E
temp.,
°C
wind,
m/s
gust,
m/s
humid.,
%
clouds,
%
prec.,
mm/h
press.,
hPa
HPBL,
m
27 september, mon
mon2700:00+9nw71389100 0.2 1009809
03:00+9n61092100 0.5 1011800
06:00+9n6129193 0.4 1014636
09:00+10n61186100 0.5 1015802
12:00+13n696560 0.1 10171345
15:00+12n6867100 0.3 10181095
18:00+10n5978100 0.1 1018540
21:00+10n51084100 0.4 1019611
28 september, tue
tue2800:00+9n4888100 0.1 1020569
03:00+9nne4886100 0.2 1020561
06:00+7nne5888100 0.3 1022639
09:00+7ne5784100 0.3 1024925
12:00+7ne5785100 0.1 10261004
15:00+7ne5672100 0.2 10271179
18:00+7ne4870100 0.0 1029838
21:00+7ene4863100 0.0 1030636
29 september, wed
wed2900:00+5nne22735 0.0 103136
03:00+3nne34801 0.0 103286
06:00+2nne37870 0.0 1033142
09:00+6nne46685 0.0 1034416
12:00+9ne4553100 0.0 10341036
15:00+10nne4546100 0.0 10331275
18:00+7nne34605 0.0 103461
21:00+5nne33675 0.0 103546
30 september, thu
thu3000:00+4ne22715 0.0 103526
03:00+3nne22745 0.0 103613
06:00+3nne22775 0.0 103612
09:00+7ne22625 0.0 1037262
12:00+11ene11483 0.0 1036945
15:00+12n11443 0.0 10361205
18:00+9nne11552 0.0 103610
21:00+7ne11620 0.0 103610
1 october, fri
fri100:00+6n00670 0.0 103710
03:00+5wnw11700 0.0 103710
06:00+5nnw11730 0.0 103710
09:00+8nw11610 0.0 1038213
12:00+12sw00490 0.0 1037894
15:00+13w00463 0.0 10361142
18:00+10e00570 0.0 103610
21:00+9sse11630 0.0 103710